Meteo Giornale » Osservazioni meteo Gran Bretagna » Londra City AP

ore: 01:20 - Osservazioni Meteo Londra City AP
Lat. 51° 30' N Lon. 0° 30' W Alt. 5 metri s.l.m.

coperto_pioggia Europe/London

14 °C

Pioggia Debole

Temp. 24 Ore

13 °C

20 °C

Sud-Ovest

13 Km/h

Dew point 11 °C

Umidità 82 %

Visibilità  10 Km

Il sole sorge alle ore 05:15

Il sole tramonta alle ore 20:41

Data e Ora Cielo e Fenomeni T °C DP °C Um. % Pres. hPa Vis. km Vento km/h
Oggi h: 01:20 coperto_pioggia Pioggia Debole 14 11 82 996 10 SO 13
Oggi h: 00:50 coperto_pioggia Pioggia Debole 14 12 87 996 10 S/SO 7.4
Oggi h: 00:20 coperto_pioggia Pioggia Debole 15 12 82 996 10 S 9.3
Ieri h: 23:50 sereno Sereno 15 12 82 996 10 N 3.7
Ieri h: 23:20 nuvoloso Nuvoloso 15 11 76 996 10 N 3.7
Ieri h: 22:50 molto_nuvoloso Molto Nuvoloso 15 12 82 996 10 O 11.1
Ieri h: 22:20 coperto_pioggia Pioggia Debole 15 12 82 997 10 O/SO 13
Ieri h: 21:50 coperto_pioggia Pioggia Debole 17 11 67 996 10 SO 14.8
Ieri h: 21:20 nuvoloso Nuvoloso 17 11 67 996 10 N 5.5
Ieri h: 20:50 sereno Sereno 18 10 59 996 10 N 5.5
Ieri h: 20:20 sereno Sereno 18 10 59 996 10 S/SE 9.3
Ieri h: 19:50 sereno Sereno 18 10 59 995 10 S/SE 11.1
Ieri h: 19:20 sereno Sereno 18 10 59 996 10 S/SO 11.1
Ieri h: 18:50 sereno Sereno 18 10 59 996 10 SO 13
Ieri h: 18:20 poco_nuvoloso Poco Nuvoloso 19 10 55 996 10 S/SO 13
Ieri h: 17:50 poco_nuvoloso Poco Nuvoloso 18 10 59 996 10 S/SO 20.3
Ieri h: 17:20 nuvoloso Nuvoloso 19 10 55 997 10 S/SO 24
Ieri h: 16:50 molto_nuvoloso Molto Nuvoloso 18 11 63 997 10 S/SO 24
Ieri h: 16:20 molto_nuvoloso Molto Nuvoloso 19 11 59 997 10 S/SO 20.3
Ieri h: 15:50 molto_nuvoloso Molto Nuvoloso 19 11 59 997 10 SO 22.2
Ieri h: 15:20 molto_nuvoloso Molto Nuvoloso 19 11 59 997 10 S/SO 25.9
Ieri h: 14:50 nuvoloso Nuvoloso 19 11 59 996 10 S/SO 24
Ieri h: 14:20 poco_nuvoloso Poco Nuvoloso 19 11 59 997 10 S/SO 18.5
Ieri h: 13:50 coperto_pioggia Pioggia Debole 18 11 63 997 10 S/SO 20.3
Ieri h: 13:20 poco_nuvoloso Poco Nuvoloso 18 11 63 996 10 SO 22.2
Ieri h: 12:50 nuvoloso Nuvoloso 20 11 56 996 10 S/SO 18.5
Ieri h: 12:20 nuvoloso Nuvoloso 19 11 59 997 10 S/SO 20.3
Ieri h: 11:50 sereno Sereno 20 11 56 997 10 S/SO 25.9
Ieri h: 11:20 sereno Sereno 20 11 56 997 10 S/SO 18.5
Ieri h: 10:50 sereno Sereno 20 11 56 997 10 SO 16.7
Ieri h: 10:20 sereno Sereno 19 11 59 997 10 SO 16.7
Ieri h: 09:50 sereno Sereno 18 11 63 997 10 S/SO 14.8
Ieri h: 09:20 sereno Sereno 17 11 67 997 10 S/SO 18.5
Ieri h: 08:50 sereno Sereno 17 11 67 998 10 S/SO 18.5
Ieri h: 08:20 sereno Sereno 16 11 72 998 10 S/SO 14.8
Ieri h: 07:50 sereno Sereno 15 10 72 998 10 S/SO 14.8
Ieri h: 07:20 sereno Sereno 14 10 76 998 10 S 11.1
Ieri h: 06:50 sereno Sereno 14 10 76 998 10 S 11.1
Ieri h: 06:20 sereno Sereno 13 10 81 998 10 S 13
Ieri h: 05:50 sereno Sereno 13 10 81 998 10 S 13
Ieri h: 05:20 sereno Sereno 13 10 81 998 10 S/SO 11.1
Ieri h: 04:50 sereno Sereno 14 10 76 999 10 S 11.1
Ieri h: 04:20 sereno Sereno 14 9 71 999 10 S/SO 14.8
Ieri h: 03:50 sereno Sereno 14 9 71 999 10 S/SO 16.7
Ieri h: 03:20 sereno Sereno 14 9 71 999 10 S 20.3
Ieri h: 02:50 sereno Sereno 15 9 67 999 10 S 18.5
Ieri h: 02:20 sereno Sereno 15 8 62 999 10 S/SO 20.3
Ieri h: 01:50 sereno Sereno 15 8 62 1000 10 S/SO 20.3